Regional Weather Roundup
Issued by NWS

Home | Current Version | Previous Version | Graphics & Text | Print | Product List | Glossary On
Versions: 1 2 3 4 5 6 7 8 9 10 11 12 13 14 15 16 17 18 19 20 21 22 23 24 25 26 27 28 29 30 31 32 33 34 35 36 37 38 39 40 41 42 43 44 45 46 47 48 49 50
000
ASUS43 KLSX 160257
RWRMO

WEATHER SUMMARY FOR MISSOURI
NATIONAL WEATHER SERVICE SPRINGFIELD MO
1000 PM CDT TUE AUG 15 2017

NOTE: "FAIR" INDICATES FEW OR NO CLOUDS BELOW 12,000 FEET WITH NO
       SIGNIFICANT WEATHER AND/OR OBSTRUCTIONS TO VISIBILITY.
       CURRENT SKY AND/OR WEATHER CONDITIONS ARE NOT AVAILABLE FOR
       CHILLICOTHE AND FARMINGTON.

MOZ001>031-035>038-043-044-053-054-160400-
...NORTHERN AND WESTERN MISSOURI...

CITY           SKY/WX    TMP DP  RH WIND       PRES   REMARKS
KANSAS CTY INT PTCLDY    77  71  82 SE7       29.88R
LEE`S SUMMIT   CLOUDY    77  72  84 E5        29.89R
ST JOSEPH      MOCLDY    79  72  79 SE7       29.87R
CHILLICOTHE      N/A     73  71  93 CALM      29.89R

$$
MOZ066>068-077>081-088>096-101>105-160400-
...SOUTHWEST MISSOURI...

CITY           SKY/WX    TMP DP  RH WIND       PRES   REMARKS
SPRINGFIELD    CLOUDY    79  73  82 SE7       29.90R
JOPLIN         LGT RAIN  79  77  94 SE6       29.87R

$$
MOZ032>034-039>042-045>050-055>058-069>072-160400-
...CENTRAL MISSOURI...

CITY           SKY/WX    TMP DP  RH WIND       PRES   REMARKS
COLUMBIA       NOT AVBL
JEFFERSON CITY CLOUDY    76  75  97 SE3       29.89R
ROLLA          CLOUDY    77  72  84 SE8       29.94R
SEDALIA        CLOUDY    76  74  93 SE6       29.90R
WARRENSBURG    CLOUDY    77  70  78 E6        29.87R

$$
MOZ051-052-059>065-160400-
...EAST CENTRAL MISSOURI...

CITY           SKY/WX    TMP DP  RH WIND       PRES   REMARKS
ST LOUIS INTL  PTCLDY    82  70  66 S9        29.93R

$$
MOZ072>076-082>087-097>100-106>115-160400-
...SOUTH CENTRAL AND SOUTHEAST MISSOURI...

CITY           SKY/WX    TMP DP  RH WIND       PRES   REMARKS
CAPE GIRARDEAU CLEAR     75  72  90 S3        29.95R
WEST PLAINS    CLOUDY    77  72  84 SE10      29.96R

$$



USA.gov is the U.S. government's official web portal to all federal, state and local government web resources and services.